Location: Marcé
(47.5801°N, 0.3280°W)
Time: 20:04:16
(UTC+01:00)

Explorer 7 - Pass Details

Date: 03 December 2021
Orbit: 483 x 674 km, 50.3° (Epoch: 17 January)

Event Time Altitude Azimuth Distance (km) Brightness Sun altitude
Rises 09:27:04 0° 271° (W) 2,737 9.9 6.6°
Reaches altitude 10° 09:29:24 10° 275° (W) 1,810 9.0 6.9°
Maximum altitude 09:33:26 58° 355° (N) 614 7.0 7.4°
Drops below altitude 10° 09:37:16 10° 76° (ENE) 1,716 9.8 7.8°
Sets 09:39:26 0° 80° (E) 2,580 10.8 8.1°
